Location: Bonaustraße
(48.4603°N, 11.9280°E)
Time: 07:01:50
(UTC+01:00)

X-37B - Pass Details

Date: 28 January 2021
Orbit: 383 x 391 km, 45.0° (Epoch: 27 February)

Event Time Altitude Azimuth Distance (km) Brightness Sun altitude
Rises 18:45:19 0° 271° (W) 2,273 6.2 -16.6°
Reaches altitude 10° 18:47:32 10° 260° (W) 1,418 4.8 -17.0°
Maximum altitude 18:50:21 29° 197° (SSW) 744 2.2 -17.5°
Enters shadow 18:51:36 22° 157° (SSE) 914 2.3 -17.7°
